Weather in Podtybok

Russia / Komi Republic     61°54′28″N   52°52′23″E
temp.,
°C
wind,
m/s
gust,
m/s
humid.,
%
clouds,
%
prec.,
mm/h
press.,
hPa
HPBL,
m
25 june, sat
sat2500:00+11wnw299793 0.1 1007193
03:00+11wnw3129413 0.1 1007391
06:00+13nw4108680 0.0 1007663
09:00+15nw510727 1.1 10071413
12:00+16nnw7105558 0.6 10091995
15:00+15nnw61157100 0.6 10101764
18:00+14nnw6135645 0.1 10111817
21:00+11nnw5126183 0.1 10121611
26 june, sun
sun2600:00+9nnw512685 0.0 1013794
03:00+8nnw512725 0.0 10141035
06:00+9nnw61164100 0.0 10151202
09:00+10nnw61158100 0.0 10161365
12:00+15n594412 0.0 10161662
15:00+17n58375 0.0 10151883
18:00+17nnw37438 0.0 10141707
21:00+13sw1157100 0.0 101311
27 june, mon
mon2700:00+12wsw2258100 0.0 101035
03:00+9sse2397100 2.8 1008115
06:00+10nnw499598 1.3 1007764
09:00+7nne61191100 1.4 1012922
12:00+6n5978100 0.1 10151260
15:00+7nnw51063100 0.1 10161536
18:00+7nnw51076100 0.2 10161242
21:00+5nnw498885 0.4 1017753
28 june, tue
tue2800:00+4nnw4129117 0.0 1017712
03:00+4nnw4118296 0.0 1018817
06:00+6nnw510649 0.0 1018970
09:00+11nnw610405 0.0 10171384
12:00+15n7103379 0.0 10171849
15:00+15n5103694 0.0 10181899
18:00+14n594250 0.0 10191477
21:00+10n411575 0.0 1020540
29 june, wed
wed2900:00+6nnw29751 0.0 1020218
03:00+6nnw3116990 0.0 1021373
06:00+10nnw41049100 0.0 1021558
09:00+14nnw573678 0.0 10191144
12:00+18nnw572895 0.0 10171555
15:00+17nw5937100 0.0 10151569
18:00+10wnw41396100 1.7 1014815
21:00+11nw41197100 2.5 1011984